Location: Unspecified
(0.0000°N, 0.0000°E)
Time: 07:13:37
(UTC+00:00)

Tiangong - Pass Details

Date: 16 September 2021
Orbit: 381 x 386 km, 41.5° (Epoch: 18 September)

Event Time Altitude Azimuth Distance (km) Brightness Sun altitude
Rises 18:52:50 0° 281° (W) 2,237 6.8 -14.5°
Reaches altitude 10° 18:55:52 10° 248° (WSW) 1,388 4.9 -15.3°
Maximum altitude 18:57:12 12° 223° (SW) 1,268 4.2 -15.6°
Drops below altitude 10° 18:58:33 10° 197° (SSW) 1,389 4.1 -16.0°
Enters shadow 19:00:50 - 170° (S) 1,985 4.5 -16.5°
